Zurück zum Katalog

STARLINK-35057

AktivKommunikationSSO
NORAD 65525·PAYLOAD·🇺🇸 United States

Gestartet Sep 6, 2025 von Cape Canaveral Space Force Station

Loading…

Nächste Überflüge (nächste 24 Stunden)

TLE

AktuellSource: CelesTrak SupGP

Epoche: Sep 15, 2026, 03:13 UTC

1 65525C 25200F   26258.13451389  .00031789  00000+0  98642-3 0  2586
2 65525  97.2847 324.6580 0001464  87.9193 252.7050 15.33435048    10

Verfolge STARLINK-35057 in Echtzeit mit AllMySat

Download on the App Store